Wind_Speed
6 8 8 3 9 8 9 11 13 14 17 19 16 17 17 17 18 20 20 19 20 18 16 16 15 15 14 10 14 11 12 10 12 9 8 10 10 9 8 10 11 12 9
8 9 13 11 10 12 13 14 15 17 16 18 18 17 17 18 19 20 20 18 19 19 18 17 17 14 15 16 14 13 13 13 12 11 11 10 9 9 10 11 10 9 9
7 10 13 16 17 17 17 17 12 9 7 10 13 15 15 17 20 20 20 21 20 18 19 18 18 17 17 16 16 13 12 12 12 11 10 8 10 11 10 10 9 9 10
6 8 10 12 14 17 16 18 18 12 11 12 13 12 12 15 16 19 19 18 21 21 20 19 20 18 18 18 17 17 15 16 12 11 12 9 11 10 11 10 12 11 9
3 2 4 6 7 8 11 11 14 18 14 13 11 9 8 14 16 17 20 21 21 21 22 22 21 21 21 20 19 17 16 17 14 13 10 11 11 11 10 11 12 12 13
12 10 7 3 0 3 6 12 14 17 15 16 13 18 21 14 17 16 19 22 24 23 24 26 24 24 25 22 21 21 17 16 15 14 12 11 12 12 10 10 11 12 12
10 9 9 8 8 6 4 7 10 13 14 16 15 15 15 18 20 16 15 22 26 27 28 28 27 21 21 21 21 21 21 21 20 16 13 12 12 12 13 15 12 13 14
5 7 8 9 10 11 9 7 7 9 14 18 21 21 22 25 27 23 21 24 23 32 33 33 33 29 25 21 19 19 21 20 22 20 17 13 14 16 18 17 19 19 16
2 3 6 9 9 10 10 12 12 11 12 12 15 18 23 25 28 31 28 29 30 31 32 35 36 34 32 26 23 23 21 18 19 20 19 19 19 20 20 17 12 11 11
7 8 10 11 11 10 11 11 12 14 15 15 17 18 19 18 20 23 28 33 33 25 28 35 34 38 34 31 27 26 25 21 17 19 18 19 21 21 19 17 11 10 10
9 10 13 14 14 14 14 15 15 15 17 19 21 21 23 25 27 29 28 27 35 31 27 29 31 34 35 33 31 29 28 21 20 20 15 16 15 13 11 12 10 10 10
11 12 15 17 18 17 19 22 22 20 21 22 24 21 19 21 28 26 21 22 20 27 36 27 29 32 31 32 31 30 28 22 24 22 15 13 11 11 10 10 11 10 10
15 15 16 17 19 20 23 26 25 24 24 24 23 22 20 18 21 24 27 19 22 25 24 25 23 28 23 28 30 30 27 23 24 18 16 14 12 11 14 13 8 8 8
21 22 22 23 24 23 24 25 26 27 27 27 26 25 22 20 18 18 18 15 16 17 15 14 29 27 23 24 30 30 27 26 26 25 14 13 11 10 7 8 8 6 7
23 25 25 26 26 27 27 27 27 29 28 29 28 26 24 22 18 17 18 17 14 15 18 18 17 24 21 26 27 27 25 25 27 23 14 13 11 10 9 9 7 7 6
25 26 26 26 26 26 27 29 28 32 34 33 32 32 31 29 31 27 24 20 17 19 20 21 19 19 24 26 22 22 25 31 27 19 15 13 12 11 10 8 8 7 9
25 26 26 26 26 27 27 29 31 29 29 30 28 25 24 26 25 24 24 20 17 19 21 20 21 17 31 27 27 28 33 30 24 16 15 14 13 11 13 9 8 7 6
24 24 23 22 23 25 25 26 27 28 29 28 24 23 23 22 19 22 23 22 22 22 22 22 21 22 25 33 33 34 33 26 24 22 16 15 14 13 12 11 10 10 9
23 24 24 20 21 23 25 25 26 27 27 27 25 25 25 23 18 18 21 24 24 22 20 20 22 20 22 27 36 31 33 32 27 22 17 16 16 15 13 12 12 12 11
24 24 24 23 23 24 23 24 25 26 25 25 25 24 23 21 18 18 20 23 24 22 18 17 16 20 22 26 30 27 30 32 26 23 23 19 16 15 14 14 13 12 10
25 22 23 23 23 25 26 26 25 23 25 26 27 23 21 23 20 17 18 21 25 24 20 19 17 18 20 25 29 32 36 34 28 26 23 21 20 19 17 14 14 13 11
25 22 24 22 21 21 22 24 28 29 26 26 27 24 23 24 19 21 21 21 20 23 21 21 21 21 22 25 26 31 35 36 31 25 28 26 25 19 16 16 15 13 11
24 24 23 23 23 25 26 23 24 24 24 24 24 25 23 23 19 20 21 20 21 20 20 21 22 25 21 23 25 27 31 34 33 35 34 30 23 20 21 19 17 14 13
26 23 22 23 23 23 24 28 27 25 27 25 23 23 22 22 22 19 19 19 20 19 19 19 18 21 24 26 27 28 27 25 26 29 33 29 26 23 21 20 18 16 14
25 21 21 21 23 25 29 28 26 25 25 23 23 23 22 21 22 20 18 18 20 19 20 20 20 20 24 26 33 29 27 31 29 29 29 27 22 22 22 20 19 16 13
21 20 21 25 25 24 23 23 23 23 24 23 22 22 22 21 19 18 19 19 18 19 20 21 20 20 22 27 28 31 34 35 34 29 26 24 23 23 22 21 19 15 12
Wind_Direction
107 105 124 122 175 219 261 269 272 271 257 253 260 259 259 254 249 247 243 234 246 241 240 246 252 257 260 263 255 250 247 243 252 257 264 270 268 274 262 285 285 289 280
211 185 181 187 228 250 250 246 268 274 262 257 261 258 261 261 250 248 248 239 244 242 242 245 251 251 260 247 249 252 234 238 242 257 257 260 276 273 273 281 273 274 267
213 221 225 226 233 239 240 251 250 272 262 252 257 259 264 266 262 255 250 250 235 241 241 243 251 251 252 247 251 246 255 245 252 254 271 283 277 277 275 286 270 270 266
217 223 227 227 231 238 245 250 245 254 246 230 239 248 259 266 265 258 258 251 246 245 249 250 248 247 248 250 259 259 251 244 245 254 264 273 278 276 286 278 283 287 280
108 167 219 234 239 247 244 245 236 240 247 253 249 242 270 272 265 257 254 257 254 249 250 252 250 245 246 249 255 258 247 253 244 249 258 268 271 272 274 277 274 276 268
72 74 69 72 153 285 248 240 245 252 254 246 250 273 259 276 264 265 260 253 250 251 248 250 250 250 252 248 246 240 246 249 249 246 256 265 274 278 278 273 274 281 281
64 58 49 40 30 16 341 272 260 260 260 263 260 261 267 256 244 257 276 266 254 250 248 245 247 243 259 256 245 245 247 248 247 251 247 259 270 273 267 272 280 275 277
35 20 10 1 348 340 333 320 296 280 268 259 265 265 267 265 252 264 281 266 266 254 244 240 239 237 234 245 249 247 245 245 245 250 257 256 260 274 281 285 286 287 291
296 311 328 331 328 324 315 311 299 282 273 271 271 271 269 268 262 263 269 256 261 263 253 247 243 236 237 240 243 247 243 234 245 244 253 261 272 277 279 282 273 280 282
286 288 301 307 310 314 315 315 311 309 297 287 280 273 266 264 270 263 257 255 263 273 262 262 254 243 235 236 235 238 235 234 231 259 254 261 272 277 277 279 261 267 267
287 279 282 285 288 294 299 302 305 305 302 300 290 283 278 277 275 273 267 278 270 266 266 258 261 245 239 235 233 232 229 235 242 243 253 264 275 278 278 285 263 243 246
293 283 280 282 278 279 278 291 292 291 294 292 295 293 286 277 282 285 277 281 295 280 265 250 251 255 243 235 230 230 226 229 247 252 244 247 252 257 257 249 260 263 260
299 293 286 279 271 269 274 281 284 287 287 284 283 283 284 276 277 287 294 291 287 294 264 242 241 245 243 231 226 222 217 221 238 232 238 243 242 242 234 244 258 259 262
298 294 288 282 277 274 271 271 273 276 278 279 281 280 279 277 272 272 279 296 292 294 276 285 246 244 238 242 228 220 218 222 230 238 229 235 231 232 235 224 227 224 258
297 294 289 286 281 276 271 272 272 272 270 271 273 275 274 270 266 261 272 282 266 274 283 280 279 253 237 225 222 226 227 234 239 235 222 226 227 223 224 227 222 227 231
298 297 292 285 281 277 276 278 278 280 284 282 281 278 271 262 257 272 282 277 276 256 265 270 272 239 226 217 233 217 223 234 235 221 216 219 215 214 213 218 210 210 207
296 296 294 289 283 278 276 279 283 285 285 289 290 290 284 276 265 262 270 271 264 256 253 264 254 253 225 230 229 235 232 228 217 207 213 211 206 204 196 191 191 197 187
296 295 298 292 283 279 278 277 279 281 285 285 285 286 282 284 278 258 258 259 259 251 250 247 251 250 237 218 220 231 235 228 226 211 207 205 195 191 179 180 178 180 179
299 299 299 291 292 284 280 279 279 278 277 279 280 280 282 278 279 267 252 254 254 252 252 242 242 246 241 219 214 221 225 217 215 205 201 197 188 184 181 176 175 173 167
301 300 302 296 291 286 280 279 279 275 275 276 276 277 276 278 274 274 258 250 248 243 239 233 230 238 229 221 209 211 208 202 207 212 200 191 187 188 190 183 179 175 177
299 297 297 296 288 289 286 281 277 281 282 275 273 271 270 267 261 260 251 260 244 240 235 226 222 234 234 225 212 210 206 203 206 199 191 188 195 195 188 194 194 192 202
296 291 292 287 287 287 285 284 281 277 275 281 276 270 270 266 255 254 248 249 248 237 231 230 223 220 220 215 209 213 206 205 203 196 197 190 191 185 204 202 203 204 210
285 290 290 286 285 285 289 285 283 278 273 276 276 269 267 261 254 253 245 241 237 236 235 228 225 212 214 213 208 207 205 207 206 203 199 197 188 186 209 205 205 208 212
287 289 288 287 285 283 285 290 293 271 272 276 276 270 263 263 257 248 246 238 232 229 223 221 223 213 214 207 204 205 206 201 200 201 203 207 190 189 208 204 205 209 216
295 291 289 290 289 287 293 293 288 280 270 278 278 271 258 259 257 247 240 233 230 229 221 220 218 218 210 218 213 196 203 200 198 193 201 195 193 202 206 207 208 212 218
295 290 289 294 297 300 298 292 287 286 280 276 278 271 263 252 247 242 243 241 232 227 215 222 222 213 212 216 212 206 200 209 207 200 201 197 204 205 207 210 211 216 211
Height
1518 1516 1517 1520 1524 1527 1528 1530 1531 1531 1532 1534 1534 1535 1535 1535 1536 1537 1538 1541 1541 1541 1543 1544 1543 1543 1543 1545 1545 1546 1545 1547 1547 1546 1546 1546 1543 1544 1544 1542 1541 1539 1539
1519 1520 1521 1522 1523 1524 1524 1529 1529 1527 1527 1528 1529 1530 1531 1530 1531 1534 1533 1535 1535 1536 1539 1540 1540 1541 1540 1540 1542 1541 1543 1544 1544 1544 1543 1542 1542 1542 1540 1539 1539 1539 1538
1518 1518 1518 1519 1521 1522 1524 1524 1523 1522 1521 1522 1523 1525 1526 1527 1526 1528 1528 1529 1531 1532 1535 1536 1537 1537 1536 1537 1538 1539 1539 1539 1540 1541 1541 1541 1541 1540 1538 1536 1535 1536 1535
1518 1518 1518 1517 1518 1519 1520 1519 1518 1518 1518 1516 1517 1518 1520 1521 1522 1524 1524 1526 1526 1527 1529 1531 1531 1531 1532 1532 1533 1534 1535 1535 1536 1537 1538 1537 1538 1538 1536 1535 1533 1531 1532
1517 1516 1516 1516 1516 1515 1515 1514 1513 1513 1514 1514 1513 1513 1514 1516 1515 1516 1517 1519 1520 1521 1522 1524 1525 1525 1526 1527 1529 1530 1531 1531 1534 1534 1534 1533 1533 1533 1532 1532 1531 1530 1529
1518 1517 1516 1515 1515 1514 1513 1512 1512 1511 1511 1511 1510 1508 1504 1507 1509 1509 1508 1509 1511 1513 1514 1516 1518 1519 1520 1521 1523 1524 1526 1528 1529 1531 1530 1529 1529 1530 1529 1528 1527 1526 1525
1520 1518 1517 1516 1515 1513 1512 1510 1509 1508 1508 1506 1505 1503 1502 1499 1500 1501 1500 1501 1501 1503 1505 1507 1509 1513 1514 1515 1517 1520 1521 1522 1524 1525 1525 1526 1526 1525 1523 1522 1522 1520 1519
1519 1518 1517 1516 1514 1512 1510 1508 1506 1504 1503 1502 1501 1500 1497 1495 1496 1496 1495 1494 1494 1493 1494 1495 1498 1502 1506 1508 1512 1513 1515 1518 1519 1520 1521 1521 1520 1519 1518 1517 1516 1514 1512
1518 1517 1515 1514 1512 1511 1508 1505 1503 1501 1499 1498 1496 1494 1493 1493 1493 1493 1490 1491 1490 1489 1491 1490 1491 1493 1496 1501 1503 1507 1510 1513 1513 1514 1515 1515 1515 1514 1514 1513 1513 1513 1511
1517 1515 1513 1511 1510 1508 1506 1504 1501 1499 1496 1494 1491 1489 1488 1487 1485 1484 1484 1484 1485 1486 1486 1487 1486 1488 1488 1493 1495 1500 1503 1506 1509 1508 1510 1510 1510 1509 1508 1507 1507 1508 1507
1514 1512 1510 1509 1507 1504 1502 1501 1499 1496 1493 1490 1487 1485 1484 1483 1480 1478 1479 1480 1479 1479 1481 1481 1479 1480 1483 1487 1489 1491 1494 1500 1502 1505 1505 1505 1505 1504 1503 1501 1501 1502 1502
1509 1508 1506 1504 1502 1502 1499 1496 1494 1491 1489 1486 1483 1481 1480 1478 1474 1473 1474 1474 1473 1470 1470 1472 1475 1472 1476 1480 1483 1485 1487 1493 1496 1499 1501 1501 1502 1502 1502 1500 1497 1498 1498
1505 1503 1501 1499 1497 1495 1492 1489 1487 1486 1483 1481 1479 1477 1475 1474 1471 1468 1467 1467 1466 1463 1461 1463 1463 1465 1468 1470 1476 1479 1482 1485 1489 1493 1496 1497 1497 1498 1495 1494 1494 1495 1496
1498 1496 1494 1491 1489 1487 1485 1484 1481 1479 1477 1474 1472 1470 1469 1468 1467 1466 1463 1462 1460 1458 1458 1456 1458 1460 1461 1466 1470 1474 1477 1481 1483 1486 1490 1493 1492 1492 1492 1493 1493 1492 1493
1490 1487 1484 1482 1480 1478 1475 1473 1471 1469 1468 1466 1464 1463 1462 1461 1461 1459 1459 1458 1457 1456 1455 1454 1452 1453 1454 1459 1465 1469 1473 1476 1478 1482 1485 1488 1488 1489 1490 1490 1490 1488 1489
1482 1479 1477 1474 1471 1469 1466 1463 1461 1458 1455 1453 1452 1451 1450 1451 1450 1451 1450 1449 1448 1448 1448 1449 1448 1447 1450 1454 1460 1463 1467 1469 1474 1478 1480 1483 1484 1484 1486 1486 1487 1487 1486
1475 1471 1468 1466 1463 1460 1458 1455 1452 1449 1446 1443 1441 1440 1439 1439 1440 1442 1442 1442 1441 1440 1440 1441 1443 1443 1447 1449 1454 1459 1460 1463 1467 1472 1476 1478 1479 1480 1479 1482 1484 1486 1486
1466 1463 1460 1457 1454 1451 1449 1447 1445 1441 1438 1435 1434 1432 1430 1431 1432 1432 1433 1432 1434 1433 1432 1434 1435 1436 1438 1442 1447 1454 1456 1459 1460 1465 1470 1473 1474 1476 1478 1479 1481 1483 1485
1460 1456 1453 1450 1448 1444 1442 1440 1437 1434 1431 1428 1427 1425 1423 1423 1423 1424 1423 1423 1424 1426 1425 1425 1428 1429 1431 1435 1442 1447 1449 1453 1455 1460 1465 1468 1471 1474 1476 1477 1479 1482 1483
1454 1450 1447 1443 1440 1436 1434 1432 1429 1426 1424 1422 1420 1420 1418 1416 1417 1416 1415 1415 1416 1419 1422 1421 1421 1423 1426 1430 1434 1438 1442 1447 1450 1453 1459 1465 1468 1472 1474 1475 1477 1479 1482
1446 1444 1442 1437 1434 1430 1427 1424 1422 1420 1417 1414 1413 1414 1413 1411 1412 1412 1411 1408 1408 1411 1413 1416 1417 1418 1420 1424 1428 1430 1435 1440 1445 1449 1454 1460 1464 1468 1471 1474 1476 1476 1479
1440 1438 1435 1431 1428 1424 1420 1417 1413 1411 1410 1408 1405 1405 1404 1404 1405 1405 1404 1404 1402 1403 1406 1409 1410 1413 1415 1418 1422 1425 1430 1434 1437 1445 1448 1455 1458 1463 1469 1471 1472 1474 1476
1432 1429 1427 1423 1420 1416 1411 1409 1406 1404 1402 1400 1398 1397 1397 1396 1397 1396 1396 1396 1397 1398 1398 1399 1401 1403 1408 1413 1418 1421 1424 1428 1432 1436 1441 1448 1454 1457 1464 1465 1468 1470 1472
1423 1420 1418 1415 1412 1409 1405 1400 1397 1395 1394 1392 1390 1389 1389 1389 1388 1389 1389 1390 1390 1392 1394 1396 1396 1396 1401 1407 1411 1415 1420 1424 1430 1434 1439 1442 1447 1453 1460 1461 1464 1466 1468
1415 1413 1410 1407 1404 1400 1396 1392 1388 1386 1384 1383 1381 1380 1380 1381 1381 1382 1382 1383 1384 1386 1387 1390 1392 1393 1395 1398 1403 1408 1416 1419 1424 1430 1433 1440 1445 1451 1455 1456 1460 1462 1464
1408 1405 1403 1399 1395 1391 1387 1383 1381 1378 1376 1375 1374 1372 1372 1373 1374 1375 1376 1375 1376 1378 1381 1384 1386 1387 1390 1393 1397 1402 1405 1410 1418 1424 1429 1434 1442 1446 1449 1452 1455 1458 1459